Location: Fxbg
(38.3018°N, 77.4708°W)
Time: 02:44:54
(UTC-05:00)

ISS - Visible Passes

Search period start: 18 February 2019 00:00
Search period end: 28 February 2019 00:00
Orbit: 403 x 411 km, 51.6° (Epoch: 18 February)

Date Brightness Start Highest point End Pass type
(mag) Time Alt. Az. Time Alt. Az. Time Alt. Az.
20 Feb -0.5 06:06:35 10° SSE 06:07:54 12° SE 06:09:14 10° ESE visible
22 Feb -2.0 05:58:16 10° SSW 06:01:12 31° SE 06:04:09 10° ENE visible
23 Feb -1.0 05:07:45 10° S 05:09:52 16° SE 05:11:59 10° E visible
24 Feb -3.9 05:51:42 13° SW 05:54:35 90° NW 05:57:52 10° NE visible
25 Feb -2.9 05:02:53 42° SSE 05:03:07 43° SE 05:06:15 10° ENE visible
26 Feb -0.4 04:13:51 12° E 04:13:51 12° E 04:14:18 10° E visible
26 Feb -3.0 05:46:35 22° W 05:48:06 35° NNW 05:51:09 10° NE visible
27 Feb -2.8 04:57:24 42° NNE 04:57:24 42° NNE 04:59:45 10° NE visible
